Tracking 32139 objects as of 16-Nov-2025
HD Live streaming from Space Station
objects crossing your sky now

STARLINK-4787

Track STARLINK-4787 now!
10-day predictions
STARLINK-4787 is classified as:


NORAD ID: 53904
Int'l Code: 2022-119U
Perigee: 545.9 km
Apogee: 547.9 km
Inclination: 53.2 °
Period: 95.4 minutes
Semi major axis: 6917 km
RCS: Unknown
Launch date: September 24, 2022
Source: United States (US)
Launch site: AIR FORCE EASTERN TEST RANGE (AFETR)
Your satellite tracking list
Your tracking list is empty




NASA's NSSDC Master Catalog

Two Line Element Set (TLE):
1 53904U 22119U   25319.84566264  .00000392  00000-0  42702-4 0  9990
2 53904  53.2151 114.7862 0001408  92.4728 267.6425 15.08841237174502
Source of the keplerian elements: AFSPC